Regional Weather Roundup
Issued by NWS Sioux Falls, SD

Home | Current Version | Previous Version | Text Only | Print | Product List | Glossary Off
Versions: 1 2 3 4 5 6 7 8 9 10 11 12 13 14 15 16 17 18 19 20 21 22 23 24 25 26 27 28 29 30 31 32 33 34 35 36 37 38 39 40 41 42 43 44 45 46 47 48 49 50

000
ASUS43 KFSD 301702
RWRFSD

WEATHER ROUNDUP FOR SE SOUTH DAKOTA/SW MINNESOTA/NW IOWA
NATIONAL WEATHER SERVICE SIOUX FALLS SD
1200 PM CDT WED JUL 30 2014

NOTE: "FAIR" INDICATES FEW OR NO CLOUDS BELOW 12,000 FEET WITH NO
SIGNIFICANT WEATHER AND OR OBSTRUCTIONS TO VISIBILITY.


SDZ038>040-050-052>070-301800-
SOUTHEAST SOUTH DAKOTA

CITY           SKY/WX    TMP DP  RH WIND       PRES   REMARKS
CHAMBERLAIN    SUNNY     78  55  45 CALM      30.16F
HURON          SUNNY     76  52  43 VRB5      30.15F
MADISON        FAIR      73  52  46 W5        30.18S
MITCHELL       SUNNY     77  53  43 CALM      30.17S
SIOUX FALLS    MOSUNNY   76  54  46 VRB3      30.16F
WINNER         FAIR      82  51  34 VRB6      30.17F
YANKTON          N/A    N/A N/A N/A MISG        N/A
$$

MNZ071-072-080-081-089-090-097-098-301800-
SOUTHWEST MINNESOTA

CITY           SKY/WX    TMP DP  RH WIND       PRES   REMARKS
FAIRMONT       SUNNY     75  55  50 NW9       30.14S
JACKSON        MOSUNNY   73  55  53 NW6       30.16S
LUVERNE        MOSUNNY   75  54  46 N5        30.17S
MARSHALL       SUNNY     73  55  53 N9        30.14F
MONTEVIDEO     SUNNY     75  59  57 N7        30.15S
PIPESTONE      MOSUNNY   73  52  46 N5        30.17S
REDWOOD FALLS  SUNNY     77  56  48 N7        30.13F
TRACY          SUNNY     74  57  56 N6        30.16S
WINDOM         SUNNY     73  55  53 NW10      30.16S
WORTHINGTON    MOSUNNY   73  54  49 N8        30.18S
$$

IAZ001>003-012>014-020>022-031-032-NEZ013-014-SDZ071-301800-
NORTHWEST IOWA

CITY           SKY/WX    TMP DP  RH WIND       PRES   REMARKS
CHEROKEE       PTSUNNY   73  57  57 NW5       30.16S
DENISON        MOSUNNY   75  55  50 NE9G16    30.15R
ESTHERVILLE    MOSUNNY   74  58  57 N10       30.15S
LE MARS        MOSUNNY   75  55  50 NE6       30.17S
ORANGE CITY    SUNNY     75  54  46 N8        30.17S
SHELDON        MOSUNNY   73  55  53 N10       30.15F
SIOUX CITY     PTSUNNY   78  55  44 VRB3      30.16S
SPENCER        MOSUNNY   77  56  48 VRB6      30.16S
STORM LAKE     SUNNY     73  59  60 VRB6G13   30.17S
$$

ABBREVIATIONS USED IN REMARKS
   TC - TEMPERATURE IN CELSIUS
  WCI - WIND CHILL INDEX
   HX - HEAT INDEX
  VSB - VISIBILITY




USA.gov is the U.S. government's official web portal to all federal, state and local government web resources and services.